This is the latest recevied weather packets stored in our database for station/object F5PHW-13. If no packets are shown the sender has not sent any weather packets the latest 10 day(s).
| Time | Temp. | Humidity | Pressure | Rain* | Wind** | Luminosity | Snow |
|---|---|---|---|---|---|---|---|
| 1777917080 | 14.44° C | 78% | 1010.6 hPa | 0 mm | - | - | - |
| 1777915881 | 14.44° C | 77% | 1010.6 hPa | 0 mm | - | - | - |
| 1777914680 | 15° C | 77% | 1010.6 hPa | 0 mm | - | - | - |
| 1777913480 | 15.56° C | 76% | 1010.6 hPa | 0 mm | - | - | - |
| 1777912279 | 15.56° C | 75% | 1010.5 hPa | 0 mm | - | - | - |
| 1777911080 | 16.11° C | 72% | 1010.6 hPa | 0 mm | - | - | - |
| 1777909882 | 16.11° C | 71% | 1010.6 hPa | 0 mm | - | - | - |
| 1777908677 | 16.67° C | 72% | 1010.6 hPa | 0 mm | - | - | - |
| 1777907477 | 16.67° C | 72% | 1010.4 hPa | 0 mm | - | - | - |
| 1777906276 | 16.67° C | 71% | 1010.4 hPa | 0 mm | - | - | - |
| 1777905076 | 16.67° C | 72% | 1010.3 hPa | 0 mm | - | - | - |
| 1777903877 | 17.22° C | 72% | 1010.6 hPa | 0 mm | - | - | - |
| 1777902676 | 16.67° C | 74% | 1010.7 hPa | 0 mm | - | - | - |
| 1777901476 | 16.67° C | 73% | 1010.8 hPa | 0 mm | - | - | - |
| 1777900276 | 16.67° C | 70% | 1010.7 hPa | 0 mm | - | - | - |
| 1777899076 | 16.67° C | 69% | 1010.7 hPa | 0 mm | - | - | - |
| 1777897876 | 16.67° C | 67% | 1010.8 hPa | 0 mm | - | - | - |
| 1777896676 | 17.22° C | 66% | 1010.8 hPa | 0 mm | - | - | - |
| 1777895477 | 17.22° C | 68% | 1010.8 hPa | 0 mm | - | - | - |
| 1777894276 | 17.22° C | 66% | 1011 hPa | 0 mm | - | - | - |
| 1777893076 | 17.22° C | 67% | 1011.1 hPa | 0 mm | - | - | - |
| 1777891876 | 17.22° C | 67% | 1011.2 hPa | 0 mm | - | - | - |
| 1777890676 | 17.22° C | 68% | 1011.2 hPa | 0 mm | - | - | - |
| 1777889476 | 17.22° C | 71% | 1011.2 hPa | 0 mm | - | - | - |
| 1777888276 | 16.11° C | 73% | 1011.3 hPa | 0 mm | - | - | - |
* Rain latest hour (hover to see other rain measurements)
** Current wind speed in m/s (hover to see current wind gust speed)